DW8356 Weather Reports


Display with metric or nautical units.
time (UTC)temp
F
wind
direction
speed
MPH
gust
MPH
rain 1hr
in
rain 24hr
in
rain mn
in
humidity
%
barometer
mb
20260510185521 72 120 4.0 15.0 0.00 0.61 0.61 76 1017.4
20260510185021 71 159 3.0 11.0 0.00 0.61 0.61 77 1017.5
20260510184559 70 135 4.0 11.0 0.00 0.61 0.61 80 1017.4
20260510184022 70 155 4.0 10.0 0.00 0.61 0.61 80 1017.4
20260510183521 69 130 3.0 9.0 0.00 0.61 0.61 83 1017.4
20260510183041 69 161 4.0 11.0 0.00 0.61 0.61 84 1017.4
20260510182520 68 163 2.0 11.0 0.00 0.61 0.61 87 1017.3
20260510182022 67 28 3.0 9.0 0.01 0.61 0.61 89 1017.1
20260510181553 66 140 4.0 10.0 0.01 0.61 0.61 89 1017.0
20260510181021 65 115 4.0 10.0 0.02 0.61 0.61 89 1017.0
20260510180521 66 146 2.0 10.0 0.03 0.61 0.61 89 1016.8
20260510180047 66 56 2.0 10.0 0.08 0.61 0.61 91 1016.8
20260510175521 64 84 2.0 9.0 0.13 0.61 0.61 90 1016.7
20260510175021 64 96 2.0 12.0 0.23 0.61 0.61 90 1016.5
20260510174534 63 76 4.0 12.0 0.30 0.61 0.61 90 1016.8
20260510174022 63 69 3.0 14.0 0.31 0.61 0.61 90 1016.7
20260510173520 63 123 6.0 14.0 0.31 0.61 0.61 90 1016.6
20260510173034 63 73 5.0 14.0 0.31 0.61 0.61 90 1016.4
20260510172530 63 244 5.0 16.0 0.31 0.61 0.61 89 1016.9
20260510172023 63 88 6.0 16.0 0.30 0.60 0.60 89 1017.2
20260510171556 63 351 7.0 15.0 0.30 0.60 0.60 89 1017.6
20260510171018 63 77 7.0 16.0 0.29 0.58 0.58 88 1018.0
20260510170518 63 44 7.0 19.0 0.27 0.57 0.57 87 1018.3
20260510170038 63 352 10.0 19.0 0.22 0.52 0.52 86 1018.2
20260510165518 64 352 7.0 19.0 0.17 0.47 0.47 84 1018.3
20260510165021 65 51 8.0 28.0 0.07 0.37 0.37 82 1018.1
20260510164538 66 18 13.0 28.0 0.01 0.31 0.31 79 1018.0
20260510164018 67 9 10.0 30.0 0.00 0.30 0.30 76 1017.6
20260510163521 68 57 14.0 30.0 0.00 0.30 0.30 73 1017.4
20260510163037 70 68 13.0 29.0 0.00 0.30 0.30 70 1017.2
20260510162519 73 5 10.0 26.0 0.00 0.30 0.30 64 1017.2
20260510162021 76 38 12.0 26.0 0.00 0.30 0.30 60 1017.2
20260510161539 78 312 1.0 5.0 0.00 0.30 0.30 64 1016.5
20260510161019 78 0 1.0 10.0 0.00 0.30 0.30 64 1015.2
20260510160519 78 171 1.0 10.0 0.00 0.30 0.30 64 1014.9
20260510160047 78 126 1.0 7.0 0.00 0.30 0.30 61 1014.5
20260510155523 80 161 1.0 9.0 0.00 0.30 0.30 60 1014.3
20260510155018 80 178 2.0 10.0 0.00 0.30 0.30 62 1014.1
20260510154558 79 177 3.0 11.0 0.00 0.30 0.30 62 1013.9
20260510154019 79 159 1.0 11.0 0.00 0.30 0.30 61 1013.9
20260510153518 78 174 2.0 16.0 0.00 0.30 0.30 63 1013.9
20260510153047 78 144 4.0 16.0 0.00 0.30 0.30 62 1013.8
20260510152518 77 148 2.0 7.0 0.00 0.30 0.30 66 1013.7
20260510152022 76 190 2.0 7.0 0.00 0.30 0.30 66 1013.7
20260510151538 76 189 2.0 7.0 0.00 0.30 0.30 66 1013.8
20260510151019 76 0 2.0 7.0 0.00 0.30 0.30 68 1013.8
20260510150525 75 159 1.0 7.0 0.00 0.30 0.30 70 1013.9
20260510150037 74 163 2.0 6.0 0.00 0.30 0.30 71 1013.9
20260510145518 73 196 1.0 5.0 0.00 0.31 0.30 72 1013.8
20260510145018 73 207 1.0 7.0 0.00 0.31 0.30 73 1013.7
20260510144553 73 142 2.0 8.0 0.00 0.31 0.30 74 1013.8
20260510144017 72 211 2.0 8.0 0.00 0.31 0.30 76 1013.8
20260510143523 72 180 1.0 6.0 0.00 0.31 0.30 77 1013.8
20260510143038 71 253 2.0 6.0 0.00 0.31 0.30 78 1013.9
20260510142527 71 214 1.0 10.0 0.00 0.31 0.30 80 1013.8
20260510142019 70 208 3.0 10.0 0.00 0.31 0.30 81 1013.9
20260510141544 69 168 3.0 8.0 0.00 0.31 0.30 83 1014.0
20260510141019 69 204 2.0 8.0 0.00 0.31 0.30 84 1014.2
20260510140519 68 204 2.0 9.0 0.00 0.31 0.30 86 1014.3
20260510140039 68 198 2.0 9.0 0.00 0.31 0.30 88 1014.3
20260510135521 67 177 1.0 7.0 0.00 0.31 0.30 90 1014.4
20260510135018 67 160 1.0 5.0 0.00 0.31 0.30 90 1014.6
20260510134543 66 162 0.0 5.0 0.00 0.31 0.30 90 1014.8
20260510134021 66 166 0.0 5.0 0.00 0.31 0.30 90 1015.0
20260510133518 66 0 0.0 5.0 0.00 0.31 0.30 90 1015.4
20260510133037 66 0 0.0 4.0 0.00 0.31 0.30 90 1015.2
20260510132518 66 151 1.0 4.0 0.00 0.31 0.30 90 1015.2
20260510132018 66 0 0.0 4.0 0.00 0.31 0.30 91 1014.9
20260510131532 65 184 1.0 6.0 0.00 0.31 0.30 91 1015.0
20260510131018 65 193 2.0 7.0 0.00 0.31 0.30 91 1014.9
20260510130518 65 196 2.0 6.0 0.00 0.31 0.30 91 1014.9
20260510130039 66 166 0.0 7.0 0.00 0.31 0.30 92 1014.8
20260510125519 65 174 1.0 7.0 0.00 0.31 0.30 92 1014.9
20260510125021 64 177 1.0 10.0 0.00 0.31 0.30 92 1014.6
20260510124541 64 162 1.0 10.0 0.00 0.31 0.30 92 1014.6
20260510124020 65 171 1.0 5.0 0.00 0.31 0.30 92 1014.6
20260510123522 64 178 1.0 5.0 0.00 0.31 0.30 92 1014.5
20260510123038 64 148 1.0 4.0 0.00 0.31 0.30 92 1014.6
20260510122519 64 188 1.0 4.0 0.00 0.31 0.30 92 1014.5
20260510122018 64 178 1.0 5.0 0.00 0.31 0.30 92 1014.4
20260510121537 64 156 1.0 5.0 0.00 0.31 0.30 92 1014.4
20260510121018 64 35 1.0 5.0 0.00 0.31 0.30 92 1014.4
20260510120521 64 163 0.0 4.0 0.00 0.31 0.30 92 1014.3
20260510120038 64 171 0.0 5.0 0.00 0.31 0.30 92 1014.2
20260510115518 64 165 1.0 5.0 0.00 0.31 0.30 92 1014.3
20260510115022 64 198 1.0 5.0 0.00 0.31 0.30 92 1014.3
20260510114532 64 175 1.0 3.0 0.00 0.31 0.30 92 1014.1
20260510114018 64 153 0.0 2.0 0.00 0.31 0.30 91 1014.3
20260510113517 64 183 0.0 1.0 0.00 0.31 0.30 91 1014.2
20260510113038 64 0 0.0 2.0 0.00 0.31 0.30 92 1014.2
20260510112520 64 0 0.0 4.0 0.00 0.31 0.30 91 1014.1
20260510112019 64 190 1.0 4.0 0.00 0.31 0.30 91 1014.0
20260510111544 64 0 0.0 2.0 0.00 0.31 0.30 91 1014.2
20260510111021 64 0 0.0 2.0 0.00 0.31 0.30 91 1014.1
20260510110518 64 187 0.0 3.0 0.00 0.31 0.30 91 1014.0
20260510110100 64 0 0.0 4.0 0.00 0.31 0.30 91 1013.9
20260510105523 64 0 1.0 4.0 0.00 0.31 0.30 91 1013.8
20260510105025 64 190 1.0 5.0 0.00 0.31 0.30 90 1014.0
20260510104552 64 100 1.0 5.0 0.00 0.31 0.30 90 1013.9
20260510104022 64 0 1.0 5.0 0.00 0.31 0.30 90 1013.9
20260510103524 64 138 1.0 3.0 0.01 0.31 0.30 90 1013.8
20260510103043 64 179 0.0 4.0 0.02 0.31 0.30 90 1013.8
20260510102522 64 178 1.0 10.0 0.14 0.31 0.30 90 1013.5
20260510102026 64 148 4.0 10.0 0.25 0.31 0.30 89 1013.3
20260510101547 64 183 2.0 11.0 0.29 0.31 0.30 89 1013.5
20260510101023 64 149 4.0 11.0 0.30 0.31 0.30 89 1013.6
20260510100523 64 99 3.0 16.0 0.30 0.31 0.30 89 1013.7
20260510100049 64 63 5.0 19.0 0.30 0.31 0.30 88 1013.9
20260510095526 64 130 6.0 19.0 0.30 0.31 0.30 88 1013.8
20260510095023 64 136 6.0 16.0 0.30 0.31 0.30 88 1013.8
20260510094538 64 83 6.0 17.0 0.30 0.31 0.30 87 1014.0
20260510094022 65 37 6.0 17.0 0.30 0.31 0.30 86 1013.8
20260510093523 65 59 8.0 23.0 0.29 0.30 0.29 86 1013.3
20260510093044 66 124 10.0 23.0 0.27 0.28 0.27 85 1013.0
20260510092525 67 112 8.0 21.0 0.15 0.16 0.15 82 1013.7
20260510092023 68 25 7.0 21.0 0.03 0.04 0.03 80 1014.3
20260510091539 68 44 10.0 27.0 0.00 0.01 0.00 78 1014.6
20260510091022 69 82 12.0 27.0 0.00 0.01 0.00 76 1014.4
20260510090522 70 9 11.0 27.0 0.00 0.01 0.00 74 1013.8
20260510090036 70 30 12.0 24.0 0.00 0.01 0.00 72 1013.6
20260510085523 71 35 8.0 18.0 0.00 0.01 0.00 75 1013.8
20260510085023 72 57 8.0 18.0 0.00 0.01 0.00 81 1013.7
20260510084556 72 46 6.0 14.0 0.00 0.01 0.00 85 1013.4
20260510084023 73 33 8.0 14.0 0.00 0.01 0.00 86 1013.1
20260510083523 73 76 6.0 14.0 0.00 0.01 0.00 88 1012.8
20260510083049 73 26 4.0 11.0 0.00 0.01 0.00 88 1012.5
20260510082522 73 74 5.0 9.0 0.00 0.01 0.00 88 1012.1
20260510082022 73 98 3.0 9.0 0.00 0.01 0.00 88 1012.1
20260510081547 73 132 3.0 10.0 0.00 0.01 0.00 88 1012.1
20260510081023 73 40 4.0 10.0 0.00 0.01 0.00 88 1012.5
20260510080523 73 58 3.0 8.0 0.00 0.01 0.00 87 1012.5
20260510080037 73 57 4.0 7.0 0.00 0.01 0.00 87 1012.3
20260510075526 73 90 2.0 6.0 0.00 0.01 0.00 87 1011.9
20260510075023 73 97 1.0 7.0 0.00 0.01 0.00 87 1011.7
20260510074538 73 44 1.0 7.0 0.00 0.01 0.00 87 1011.5
20260510074021 73 125 2.0 9.0 0.00 0.01 0.00 86 1011.3
20260510073523 74 119 3.0 9.0 0.00 0.01 0.00 86 1011.2
20260510073046 74 92 3.0 8.0 0.00 0.01 0.00 86 1011.1
20260510072522 74 91 2.0 8.0 0.00 0.01 0.00 85 1011.0
20260510072022 74 185 3.0 11.0 0.00 0.01 0.00 85 1010.7
20260510071540 74 92 4.0 11.0 0.00 0.01 0.00 84 1010.4
20260510071021 74 93 4.0 11.0 0.00 0.01 0.00 84 1010.5
20260510070521 75 102 3.0 9.0 0.00 0.01 0.00 83 1010.4
20260510070040 75 147 4.0 18.0 0.00 0.01 0.00 83 1010.1
20260510065522 75 165 5.0 18.0 0.00 0.01 0.00 83 1009.9
20260510065025 75 132 3.0 8.0 0.00 0.01 0.00 83 1010.8
20260510064538 75 101 2.0 10.0 0.00 0.01 0.00 83 1011.8
20260510064023 75 31 5.0 12.0 0.00 0.01 0.00 83 1012.2
20260510063522 75 26 5.0 12.0 0.00 0.01 0.00 83 1012.3
20260510063038 75 17 5.0 11.0 0.00 0.01 0.00 83 1012.5
20260510062522 75 66 5.0 11.0 0.00 0.01 0.00 83 1012.6
20260510062022 75 29 4.0 9.0 0.00 0.01 0.00 82 1012.6
20260510061545 75 22 3.0 10.0 0.00 0.01 0.00 82 1012.4
20260510061022 75 17 4.0 10.0 0.00 0.01 0.00 82 1012.2
20260510060522 75 347 4.0 10.0 0.00 0.01 0.00 81 1012.4
20260510060042 75 5 3.0 5.0 0.00 0.01 0.00 81 1012.2
20260510055522 75 344 3.0 6.0 0.00 0.01 0.00 81 1011.5
20260510055022 75 52 2.0 7.0 0.00 0.01 0.00 81 1010.9
20260510054532 75 124 3.0 7.0 0.00 0.01 0.00 81 1010.2
20260510054022 75 149 1.0 7.0 0.00 0.01 0.00 81 1010.1
20260510053521 75 129 2.0 7.0 0.00 0.01 0.00 81 1010.1
20260510053041 75 139 2.0 7.0 0.00 0.01 0.00 81 1010.0
20260510052521 75 134 1.0 7.0 0.00 0.01 0.00 80 1009.9
20260510052026 75 171 2.0 8.0 0.00 0.01 0.00 80 1009.9
20260510051542 75 155 2.0 8.0 0.00 0.01 0.00 79 1009.7
20260510051023 75 167 2.0 8.0 0.00 0.01 0.00 79 1009.5
20260510050521 75 153 2.0 7.0 0.00 0.01 0.00 78 1009.6
20260510050039 75 178 1.0 6.0 0.00 0.01 0.00 77 1009.7
20260510045522 75 163 2.0 7.0 0.00 0.01 0.01 76 1009.7
20260510045022 75 153 1.0 7.0 0.00 0.01 0.01 76 1009.6
20260510044538 75 145 1.0 7.0 0.00 0.01 0.01 75 1009.6
20260510044023 75 165 3.0 7.0 0.00 0.01 0.01 74 1009.3
20260510043522 74 134 2.0 6.0 0.00 0.01 0.01 74 1009.1
20260510043035 75 123 1.0 6.0 0.00 0.01 0.01 73 1009.2
20260510042522 75 145 1.0 6.0 0.00 0.01 0.01 73 1009.1
20260510042021 75 162 1.0 5.0 0.00 0.01 0.01 73 1009.2
20260510041538 75 134 1.0 5.0 0.00 0.01 0.01 73 1009.3
20260510041025 75 0 1.0 4.0 0.00 0.01 0.01 72 1009.3
20260510040523 75 0 1.0 4.0 0.00 0.01 0.01 72 1009.3
20260510040040 75 143 1.0 5.0 0.00 0.01 0.01 72 1009.4
20260510035522 76 130 1.0 5.0 0.00 0.02 0.01 71 1009.4
20260510035023 76 173 1.0 5.0 0.00 0.02 0.01 71 1009.6
20260510034538 76 167 2.0 5.0 0.00 0.02 0.01 71 1009.6
20260510034023 76 149 1.0 5.0 0.00 0.02 0.01 71 1009.6
20260510033522 76 0 1.0 3.0 0.00 0.02 0.01 71 1009.6
20260510033039 77 141 1.0 7.0 0.00 0.02 0.01 70 1009.5
20260510032522 77 148 2.0 8.0 0.00 0.02 0.01 70 1009.5
20260510032021 77 157 2.0 8.0 0.00 0.02 0.01 69 1009.5
20260510031551 77 200 2.0 7.0 0.00 0.02 0.01 69 1009.6
20260510031022 77 172 2.0 7.0 0.00 0.02 0.01 69 1009.5
20260510030523 77 183 1.0 6.0 0.00 0.02 0.01 69 1009.5
20260510030038 77 121 2.0 6.0 0.00 0.02 0.01 69 1009.5
20260510025523 77 97 2.0 6.0 0.00 0.02 0.01 69 1009.5
20260510025022 77 83 2.0 7.0 0.00 0.02 0.01 69 1009.4
20260510024537 77 97 2.0 7.0 0.00 0.02 0.01 68 1009.5
20260510024021 78 104 2.0 7.0 0.00 0.02 0.01 68 1009.5
20260510023521 78 97 2.0 8.0 0.00 0.02 0.01 68 1009.5
20260510023043 78 115 2.0 8.0 0.00 0.02 0.01 67 1009.5
20260510022522 78 95 3.0 7.0 0.00 0.02 0.01 67 1009.4
20260510022023 78 115 2.0 7.0 0.00 0.02 0.01 67 1009.5
20260510021539 78 118 2.0 6.0 0.00 0.02 0.01 66 1009.4
20260510021021 78 116 2.0 7.0 0.00 0.02 0.01 66 1009.3
20260510020521 79 195 2.0 7.0 0.00 0.02 0.01 65 1009.3
20260510020038 79 96 2.0 7.0 0.00 0.02 0.01 64 1009.3
20260510015521 79 161 2.0 7.0 0.00 0.02 0.01 64 1009.2
20260510015024 79 119 2.0 6.0 0.00 0.02 0.01 63 1009.2
20260510014536 79 124 2.0 6.0 0.00 0.02 0.01 63 1009.1
20260510014022 79 148 2.0 7.0 0.00 0.02 0.01 62 1009.2
20260510013523 80 83 2.0 7.0 0.00 0.02 0.01 61 1009.1
20260510013048 80 144 2.0 8.0 0.00 0.02 0.01 61 1009.0
20260510012522 80 94 2.0 8.0 0.00 0.02 0.01 60 1008.9
20260510012023 80 96 2.0 6.0 0.00 0.02 0.01 60 1008.8
20260510011538 80 119 2.0 8.0 0.00 0.02 0.01 59 1008.8
20260510011022 81 101 3.0 8.0 0.00 0.02 0.01 59 1008.6
20260510010522 81 93 2.0 8.0 0.00 0.02 0.01 59 1008.6
20260510010038 81 137 3.0 9.0 0.00 0.02 0.01 58 1008.5
20260510005522 81 138 3.0 9.0 0.00 0.02 0.01 58 1008.5
20260510005022 82 104 2.0 11.0 0.00 0.02 0.01 57 1008.5
20260510004538 82 90 2.0 11.0 0.00 0.02 0.01 55 1008.5
20260510004021 82 150 2.0 9.0 0.00 0.02 0.01 54 1008.5
20260510003521 82 158 2.0 9.0 0.00 0.02 0.01 54 1008.5
20260510003039 83 72 2.0 9.0 0.00 0.02 0.01 53 1008.4
20260510002522 83 92 2.0 8.0 0.00 0.02 0.01 53 1008.4
20260510002022 83 143 3.0 8.0 0.00 0.02 0.01 53 1008.4
20260510001537 83 147 2.0 9.0 0.00 0.02 0.01 52 1008.3
20260510001022 84 124 2.0 9.0 0.00 0.02 0.01 51 1008.5
20260510000521 84 107 2.0 10.0 0.00 0.02 0.01 48 1008.6
20260510000038 84 126 2.0 10.0 0.00 0.02 0.01 45 1008.6
20260509235522 84 90 3.0 10.0 0.00 0.02 0.01 47 1008.6
20260509235022 84 131 3.0 10.0 0.00 0.02 0.01 50 1008.6
20260509234541 85 94 3.0 9.0 0.00 0.02 0.01 51 1008.6
20260509234022 85 110 3.0 9.0 0.00 0.02 0.01 51 1008.6
20260509233521 85 109 2.0 9.0 0.00 0.02 0.01 51 1008.6
20260509233039 85 155 2.0 9.0 0.00 0.02 0.01 52 1008.6
20260509232522 85 107 4.0 9.0 0.00 0.02 0.01 51 1008.7
20260509232022 85 89 2.0 9.0 0.00 0.02 0.01 52 1008.6
20260509231538 85 114 4.0 9.0 0.00 0.02 0.01 51 1008.7
20260509231021 85 95 2.0 8.0 0.00 0.02 0.01 53 1008.6
20260509230521 85 76 3.0 8.0 0.00 0.02 0.01 52 1008.6
20260509230040 85 28 2.0 8.0 0.00 0.02 0.01 52 1008.6
20260509225522 85 74 2.0 10.0 0.00 0.02 0.01 54 1008.6
20260509225022 86 76 3.0 10.0 0.00 0.02 0.01 52 1008.6
20260509224539 85 34 1.0 8.0 0.00 0.02 0.01 54 1008.6
20260509224021 86 101 3.0 9.0 0.00 0.02 0.01 53 1008.6
20260509223524 85 115 4.0 11.0 0.00 0.02 0.01 54 1008.5
20260509223036 85 65 5.0 11.0 0.00 0.02 0.01 54 1008.5
20260509222522 86 115 2.0 9.0 0.00 0.02 0.01 56 1008.5
20260509222022 86 352 3.0 10.0 0.00 0.02 0.01 54 1008.5
20260509221535 86 156 3.0 10.0 0.00 0.02 0.01 54 1008.4
20260509221023 86 0 2.0 10.0 0.00 0.02 0.01 54 1008.5
20260509220521 86 86 4.0 10.0 0.00 0.02 0.01 55 1008.4
20260509220039 87 166 2.0 7.0 0.00 0.02 0.01 55 1008.5
20260509215522 85 136 1.0 9.0 0.00 0.02 0.01 57 1008.4
20260509215021 86 105 4.0 9.0 0.00 0.02 0.01 57 1008.5
20260509214539 86 172 2.0 9.0 0.00 0.02 0.01 56 1008.5
20260509214024 87 102 3.0 10.0 0.00 0.02 0.01 56 1008.5
20260509213522 87 212 1.0 11.0 0.00 0.02 0.01 57 1008.6
20260509213038 86 90 2.0 11.0 0.00 0.02 0.01 58 1008.7
20260509212522 87 101 4.0 11.0 0.00 0.02 0.01 57 1008.7
20260509212025 87 178 3.0 9.0 0.00 0.02 0.01 57 1008.9
20260509211544 87 108 2.0 10.0 0.00 0.02 0.01 58 1009.0
20260509211023 87 194 4.0 10.0 0.00 0.02 0.01 56 1008.9
20260509210521 87 174 3.0 10.0 0.00 0.02 0.01 57 1008.9
20260509210040 88 100 3.0 10.0 0.00 0.02 0.01 55 1009.1
20260509205521 87 200 2.0 10.0 0.00 0.02 0.01 57 1009.1
20260509205023 87 174 3.0 13.0 0.00 0.02 0.01 55 1009.2
20260509204541 87 146 3.0 13.0 0.00 0.02 0.01 57 1009.3
20260509204023 88 192 5.0 11.0 0.00 0.02 0.01 57 1009.2
20260509203519 88 138 2.0 9.0 0.00 0.02 0.01 56 1009.3
20260509203039 88 146 2.0 9.0 0.00 0.02 0.01 57 1009.3
20260509202522 87 98 2.0 8.0 0.00 0.02 0.01 57 1009.3
20260509202022 86 24 2.0 9.0 0.00 0.02 0.01 56 1009.4
20260509201537 86 82 2.0 9.0 0.00 0.02 0.01 56 1009.4
20260509201021 85 84 2.0 10.0 0.00 0.02 0.01 57 1009.5
20260509200521 87 21 3.0 10.0 0.00 0.02 0.01 55 1009.5
20260509200043 87 76 1.0 9.0 0.00 0.02 0.01 55 1009.5
20260509195527 87 30 4.0 9.0 0.00 0.02 0.01 56 1009.6
20260509195021 87 45 2.0 7.0 0.00 0.02 0.01 55 1009.6
20260509194538 88 205 1.0 9.0 0.00 0.02 0.01 55 1009.6
20260509194021 87 145 1.0 9.0 0.00 0.02 0.01 56 1009.7
20260509193522 86 151 2.0 9.0 0.00 0.02 0.01 54 1009.8
20260509193037 86 61 2.0 9.0 0.00 0.02 0.01 54 1009.9
20260509192522 86 146 2.0 8.0 0.00 0.02 0.01 54 1009.9
20260509192025 86 34 1.0 8.0 0.00 0.02 0.01 56 1009.9
20260509191541 85 5 3.0 10.0 0.00 0.02 0.01 55 1009.9
20260509191020 86 111 4.0 10.0 0.00 0.02 0.01 54 1010.0
20260509190520 86 52 2.0 7.0 0.00 0.02 0.01 58 1009.9
20260509190042 84 107 1.0 7.0 0.00 0.02 0.01 60 1009.9